Weather History for Pensacola NAS, FL

Change the Weather History Date:

Saturday, March 3, 2012

  Actual Average Record
Temperature  
Mean Temperature 60 °F -  
Max Temperature 70 °F 65 °F 75 °F (1997)
Min Temperature 50 °F 47 °F 33 °F (2013)
Degree Days  
Heating Degree Days 4    
Growing Degree Days 10 (Base 50)    
Moisture  
Dew Point 58 °F    
Average Humidity 92    
Maximum Humidity 100    
Minimum Humidity 61    
Precipitation  
Precipitation 1.12 in - - ()
Sea Level Pressure  
Sea Level Pressure 29.79 in    
Wind  
Wind Speed 10 mph (NNW)    
Max Wind Speed 17 mph    
Max Gust Speed 24 mph    
Visibility 7 miles    
Events Rain , Thunderstorm    
Averages and records for this station are not official NWS values.
T = Trace of Precipitation, MM = Missing Value Source: NWS Daily Summary

Daily Weather History Graph

Daily Weather History Graph

Search for Another Location

Airport:

Trip Planner

Search our weather history database for the weather conditions in past years. The results will help you decide how hot, cold, wet, or windy it might be!

Date:

Astronomy

Mar. 03, 2012 Rise Set
Actual Time 6:12 AM CST 5:49 PM CST
Civil Twilight 5:48 AM CST 6:13 PM CST
Nautical Twilight 5:20 AM CST 6:41 PM CST
Astronomical Twilight 4:52 AM CST 7:09 PM CST
Moon 1:16 PM CST (3/3) 2:32 AM CST (3/3)
Length of Visible Light 12h 25m
Length of Day
11h 37m
Waxing Gibbous, 75% of the Moon is Illuminated
Mar 3
Waxing Gibbous
Mar 8
Full
Mar 14
Last Quarter
Mar 22
New
Mar 30
First Quarter

Hourly Weather History & Observations

Time (CST) Temp. Dew Point Humidity Pressure Visibility Wind Dir Wind Speed Gust Speed Precip Events Conditions
12:04 AM 68.0 °F 66.2 °F 94% 29.78 in 6.0 mi SW 12.7 mph - N/A   Overcast
12:56 AM 68.0 °F 68.0 °F 100% 29.77 in 5.0 mi SW 11.5 mph - N/A   Overcast
1:56 AM 68.0 °F 68.0 °F 100% 29.77 in 3.0 mi SW 10.4 mph - N/A   Overcast
2:56 AM 68.0 °F 68.0 °F 100% 29.76 in 5.0 mi SW 10.4 mph - N/A   Overcast
3:56 AM 68.0 °F 68.0 °F 100% 29.76 in 5.0 mi SW 11.5 mph - N/A   Overcast
4:56 AM 69.1 °F 68.0 °F 96% 29.76 in 5.0 mi SW 9.2 mph - 0.01 in Rain Rain
5:04 AM 69.8 °F 69.8 °F 100% 29.75 in 7.0 mi WSW 8.1 mph - 0.00 in Rain Light Rain
5:56 AM 69.1 °F 68.0 °F 96% 29.75 in 5.0 mi SW 17.3 mph 24.2 mph 0.00 in Rain Light Rain
6:06 AM 68.0 °F 68.0 °F 100% 29.74 in 5.0 mi SSW 17.3 mph 23.0 mph 0.01 in Rain , Thunderstorm Thunderstorms and Rain
6:56 AM 70.0 °F 69.1 °F 97% 29.75 in 10.0 mi West 10.4 mph 18.4 mph 0.01 in Rain , Thunderstorm Light Rain
7:19 AM 69.8 °F 68.0 °F 94% 29.75 in 10.0 mi WSW 13.8 mph 20.7 mph 0.00 in Thunderstorm Overcast
7:39 AM 69.8 °F 68.0 °F 94% 29.76 in 10.0 mi WSW 8.1 mph - 0.00 in Thunderstorm Thunderstorm
7:46 AM 69.8 °F 68.0 °F 94% 29.75 in 10.0 mi West 5.8 mph - 0.00 in   Overcast
7:56 AM 69.1 °F 68.0 °F 96% 29.76 in 4.0 mi West 8.1 mph - 0.01 in Rain Light Rain
8:13 AM 64.4 °F 62.6 °F 94% 29.75 in 4.0 mi North 10.4 mph 21.9 mph 0.03 in Rain Heavy Rain
8:20 AM 60.8 °F 60.8 °F 100% 29.75 in 3.0 mi North 12.7 mph - 0.05 in Rain Light Rain
8:34 AM 60.8 °F 59.0 °F 94% 29.75 in 10.0 mi North 8.1 mph 18.4 mph 0.05 in   Mostly Cloudy
8:43 AM 60.8 °F 57.2 °F 88% 29.76 in 10.0 mi NNW 10.4 mph - 0.05 in Rain , Thunderstorm Light Rain
8:56 AM 60.1 °F 57.0 °F 90% 29.76 in 9.0 mi North 9.2 mph 17.3 mph 0.05 in Rain , Thunderstorm Thunderstorms and Rain
9:06 AM 60.8 °F 57.2 °F 88% 29.77 in 10.0 mi North 8.1 mph - 0.00 in Rain , Thunderstorm Light Thunderstorms and Rain
9:56 AM 57.9 °F 57.9 °F 100% 29.81 in 2.5 mi NNE 3.5 mph - 0.11 in Rain , Thunderstorm Heavy Thunderstorms and Rain
10:31 AM 59.0 °F 57.2 °F 94% 29.82 in 3.0 mi North 8.1 mph - 0.21 in Rain , Thunderstorm Light Thunderstorms and Rain
10:56 AM 59.0 °F 57.9 °F 96% 29.81 in 5.0 mi NNW 6.9 mph - 0.21 in Rain , Thunderstorm Light Thunderstorms and Rain
11:16 AM 59.0 °F 57.2 °F 94% 29.79 in 5.0 mi North 8.1 mph - N/A Rain Light Rain
11:56 AM 57.9 °F 57.0 °F 97% 29.79 in 2.0 mi North 11.5 mph - 0.15 in Rain Rain
12:02 PM 57.2 °F 57.2 °F 100% 29.79 in 6.0 mi North 8.1 mph - N/A Rain Light Rain
12:41 PM 57.2 °F 55.4 °F 94% 29.80 in 6.0 mi North 3.5 mph - N/A Rain Light Rain
12:56 PM 57.0 °F 55.0 °F 93% 29.81 in 6.0 mi North 8.1 mph - 0.14 in Rain Light Rain
1:56 PM 55.9 °F 55.0 °F 97% 29.80 in 6.0 mi North 8.1 mph - 0.05 in Rain Light Rain
2:56 PM 55.9 °F 55.0 °F 97% 29.76 in 7.0 mi NNE 10.4 mph - 0.01 in   Overcast
3:02 PM 55.4 °F 55.4 °F 100% 29.78 in 7.0 mi North 9.2 mph - 0.06 in Rain Light Rain
3:16 PM 55.4 °F 53.6 °F 94% 29.77 in 4.0 mi NNE 10.4 mph - 0.24 in Rain Rain
3:56 PM 54.0 °F 52.0 °F 93% 29.77 in 5.0 mi North 10.4 mph - 0.27 in Rain Light Rain
4:56 PM 53.1 °F 52.0 °F 96% 29.78 in 4.0 mi North 8.1 mph - 0.06 in Rain Light Rain
5:56 PM 54.0 °F 53.1 °F 97% 29.80 in 10.0 mi North 8.1 mph - 0.04 in   Overcast
6:33 PM 51.8 °F 48.2 °F 88% 29.82 in 10.0 mi North 6.9 mph - N/A Rain Light Rain
6:56 PM 52.0 °F 48.0 °F 86% 29.83 in 10.0 mi North 5.8 mph - N/A Rain Light Rain
7:56 PM 51.1 °F 46.0 °F 83% 29.83 in 10.0 mi North 6.9 mph - 0.00 in Rain Light Rain
8:22 PM 51.8 °F 42.8 °F 71% 29.86 in 10.0 mi North 9.2 mph - 0.00 in   Mostly Cloudy
8:56 PM 51.1 °F 42.1 °F 71% 29.88 in 10.0 mi North 8.1 mph - 0.00 in   Overcast
9:56 PM 51.1 °F 37.9 °F 61% 29.91 in 10.0 mi NNW 12.7 mph - N/A   Overcast
10:56 PM 51.1 °F 37.9 °F 61% 29.93 in 10.0 mi NNW 11.5 mph 19.6 mph N/A   Mostly Cloudy
11:56 PM 50.0 °F 37.9 °F 63% 29.95 in 10.0 mi NNW 13.8 mph 19.6 mph N/A   Scattered Clouds